FW6920 Weather Reports


time (UTC)temp
F
wind
direction
speed
knots
gust
knots
rain 1hr
in
rain 24hr
in
rain mn
in
humidity
%
barometer
mb
20260505181534 69 321 11.3 18.2 0.00 0.00 0.00 55 1015.1
20260505180043 68 320 12.2 18.2 0.00 0.00 0.00 56 1015.1
20260505174531 67 322 12.2 17.4 0.00 0.00 0.00 57 1015.1
20260505171532 67 322 11.3 17.4 0.00 0.00 0.00 58 1015.1
20260505170106 67 322 11.3 16.5 0.00 0.00 0.00 58 1015.1
20260505163107 67 320 10.4 16.5 0.00 0.00 0.00 59 1015.2
20260505161530 66 323 10.4 15.6 0.00 0.00 0.00 59 1015.3
20260505153028 64 327 7.0 10.4 0.00 0.00 0.00 64 1015.1
20260505151532 62 325 7.8 12.2 0.00 0.00 0.00 67 1015.0
20260505130107 57 320 7.0 11.3 0.00 0.00 0.00 75 1013.6
20260505123031 58 316 7.8 12.2 0.00 0.00 0.00 72 1013.4
20260505121529 59 315 8.7 13.9 0.00 0.00 0.00 72 1013.3
20260505120040 59 314 9.6 14.8 0.00 0.00 0.00 72 1013.1
20260505114535 59 316 9.6 15.6 0.00 0.00 0.00 72 1013.0
20260505113032 59 315 8.7 15.6 0.00 0.00 0.00 72 1013.0
20260505101531 62 315 10.4 15.6 0.00 0.00 0.00 68 1012.4
20260505100039 62 313 10.4 16.5 0.00 0.00 0.00 68 1012.3
20260505094531 62 314 10.4 16.5 0.00 0.00 0.00 68 1012.1
20260505091529 63 311 8.7 15.6 0.00 0.00 0.00 67 1012.0
20260505090030 63 311 7.0 13.0 0.00 0.00 0.00 67 1011.9
20260505083030 64 313 7.0 12.2 0.00 0.00 0.00 65 1011.9
20260505081535 64 314 6.1 12.2 0.00 0.00 0.00 63 1011.9
20260505080034 65 313 6.1 9.6 0.00 0.00 0.00 63 1011.9
20260505073106 66 316 6.1 13.0 0.00 0.00 0.00 60 1011.7
20260505071608 66 312 9.6 20.0 0.00 0.00 0.00 61 1011.4
20260505070033 65 313 7.8 15.6 0.00 0.00 0.00 60 1011.5
20260505064529 66 300 4.3 7.8 0.00 0.00 0.00 58 1011.6
20260505063029 67 299 7.0 14.8 0.00 0.00 0.00 56 1011.3
20260505061530 67 309 12.2 19.1 0.00 0.00 0.00 55 1010.9
20260505060045 68 312 13.0 20.0 0.00 0.00 0.00 53 1010.8
20260505054607 68 313 13.0 19.1 0.00 0.00 0.00 52 1010.7
20260505053031 69 310 13.0 19.1 0.00 0.00 0.00 51 1010.9
20260505051536 69 308 9.6 16.5 0.00 0.00 0.00 49 1011.0
20260505041530 71 310 12.2 20.0 0.00 0.00 0.00 46 1009.9
20260505034528 72 308 11.3 18.2 0.00 0.00 0.00 47 1009.6
20260505030032 73 303 9.6 20.0 0.00 0.00 0.00 46 1009.2
20260505024529 74 306 9.6 18.2 0.00 0.00 0.00 46 1009.0
20260505023030 75 307 8.7 14.8 0.00 0.00 0.00 45 1009.0
20260505020103 79 310 9.6 14.8 0.00 0.00 0.00 42 1009.0
20260505014603 81 324 7.8 15.6 0.00 0.00 0.00 41 1009.0
20260505010032 82 326 11.3 15.6 0.00 0.00 0.00 40 1008.9
20260505003031 83 330 12.2 16.5 0.00 0.00 0.00 39 1008.9
20260505001528 83 323 13.0 23.5 0.00 0.00 0.00 39 1009.0
20260505000035 84 323 13.9 21.7 0.00 0.00 0.00 39 1009.0
20260504234528 84 325 13.9 23.5 0.00 0.00 0.00 38 1008.8
20260504231529 85 325 13.9 20.0 0.00 0.00 0.00 37 1009.1
20260504230032 86 323 13.0 18.2 0.00 0.00 0.00 36 1009.2
20260504224531 87 323 12.2 18.2 0.00 0.00 0.00 36 1009.4
20260504223031 87 322 12.2 14.8 0.00 0.00 0.00 36 1009.6
20260504221538 86 326 12.2 15.6 0.00 0.00 0.00 37 1009.8
20260504220147 85 324 10.4 17.4 0.00 0.00 0.00 38 1009.9
20260504214530 84 322 10.4 18.2 0.00 0.00 0.00 38 1010.1
20260504213030 83 320 9.6 13.0 0.00 0.00 0.00 39 1010.2
20260504211534 83 328 9.6 13.9 0.00 0.00 0.00 39 1010.4
20260504210031 82 317 9.6 16.5 0.00 0.00 0.00 40 1010.5
20260504204530 81 319 11.3 18.2 0.00 0.00 0.00 41 1010.7
20260504201529 79 318 11.3 21.7 0.00 0.00 0.00 43 1010.9
20260504200033 79 319 10.4 20.9 0.00 0.00 0.00 44 1011.1
20260504194530 78 320 10.4 21.7 0.00 0.00 0.00 44 1011.1
20260504193030 78 321 10.4 14.8 0.00 0.00 0.00 44 1011.2
20260504191531 77 321 10.4 26.1 0.00 0.00 0.00 45 1011.3
20260504190031 77 321 10.4 24.3 0.00 0.00 0.00 45 1011.3
20260504184531 77 322 10.4 19.1 0.00 0.00 0.00 45 1011.4